This demonstration page uses our WeatherBlox Daily Observations layout. Learn more.

Left ArrowRight Arrow

Hourly Observations for February 9, 2020

Temp ( °F °C ) Dew Point ( °F °C ) Humidity (%) Winds ( mph kmh ) Pressure ( in mb ) Visibility ( mi km ) Precip ( " mm )
12:53 am 00:53 Cloudy 32 undefined 27 -2.8 82 82 N N/A 30.36 1028 10 16 N/A
1:53 am 01:53 Cloudy 31 -0.6 27 -2.8 85 85 SW 3 6 30.38 1029 10 16 N/A
2:53 am 02:53 Cloudy 32 undefined 27 -2.8 82 82 SW 3 6 30.40 1029 10 16 N/A
3:53 am 03:53 Cloudy 31 -0.6 27 -2.8 85 85 SW 3 6 30.40 1030 9 14 N/A
4:53 am 04:53 Clear 28 -2.2 26 -3.3 92 92 N N/A 30.41 1030 7 11 N/A
5:53 am 05:53 Clear with Mist and Fog 26 -3.3 24 -4.4 92 92 ESE 3 6 30.41 1030 5 8 N/A
6:53 am 06:53 Clear with Mist and Fog 26 -3.3 24 -4.4 92 92 E 3 6 30.41 1030 4 6 N/A
7:53 am 07:53 Sunny with Mist and Fog 24 -4.4 23 -5 96 96 N N/A 30.43 1030 3 5 N/A
8:53 am 08:53 Sunny with Mist and Fog 29 -1.7 27 -2.8 92 92 N N/A 30.42 1030 4 6 N/A
9:53 am 09:53 Sunny 31 -0.6 25 -3.9 79 79 SSE 5 7 30.42 1030 8 13 N/A
10:53 am 10:53 Cloudy 32 undefined 24 -4.4 73 73 VRB 7 11 30.44 1031 10 16 N/A
11:53 am 11:53 Cloudy 34 1.1 25 -3.9 70 70 SSE 6 9 30.40 1029 10 16 N/A
12:53 pm 12:53 Cloudy 36 2.2 25 -3.9 64 64 VRB 6 9 30.36 1028 10 16 N/A
1:53 pm 13:53 Cloudy 37 2.8 25 -3.9 62 62 VRB 6 9 30.32 1027 10 16 N/A
2:06 pm 14:06 Cloudy with Light Snow 36 2.2 27 -2.8 70 70 VRB 6 9 30.32 1027 2 3 0.00 0.00
2:09 pm 14:09 Cloudy with Light Snow 35 1.7 29 -1.7 78 78 VRB 6 9 30.31 1026 1 1 0.01 0.25
2:29 pm 14:29 Cloudy with Light Snow 33 0.6 31 -0.6 92 92 VRB 5 7 30.30 1026 2 3 0.02 0.51
2:32 pm 14:32 Cloudy with Light Snow 34 1.1 31 -0.6 89 89 VRB 3 6 30.30 1026 3 5 0.02 0.51
2:42 pm 14:42 Cloudy with Light Snow 34 1.1 31 -0.6 89 89 ESE 7 11 30.28 1025 5 8 0.02 0.51
2:53 pm 14:53 Cloudy with Light Rain 34 1.1 31 -0.6 89 89 VRB 7 11 30.26 1025 7 11 0.02 0.51
3:53 pm 15:53 Cloudy 36 2.2 32 undefined 86 86 VRB 6 9 30.19 1022 10 16 0.00 0.00
4:53 pm 16:53 Cloudy with Light Rain 37 2.8 32 undefined 82 82 ESE 3 6 30.18 1022 10 16 0.00 0.00
5:53 pm 17:53 Cloudy with Light Rain 38 3.3 31 -0.6 76 76 VRB 5 7 30.12 1020 10 16 0.01 0.25
6:53 pm 18:53 Cloudy with Light Rain 38 3.3 33 0.6 83 83 N N/A 30.11 1020 9 14 0.02 0.51
7:53 pm 19:53 Cloudy with Light Rain 38 3.3 35 1.7 89 89 N N/A 30.09 1019 10 16 0.05 1.27
8:53 pm 20:53 Cloudy with Light Rain 38 3.3 36 2.2 93 93 E 3 6 30.06 1018 10 16 0.01 0.25
9:53 pm 21:53 Cloudy with Rain 40 4.4 38 3.3 93 93 N N/A 30.05 1018 6 10 0.03 0.76
10:53 pm 22:53 Cloudy with Light Rain 43 6.1 39 3.9 86 86 VRB 3 6 30.04 1017 10 16 0.02 0.51
11:53 pm 23:53 Cloudy 44 6.7 39 3.9 83 83 VRB 6 9 30.03 1017 10 16 0.01 0.25

Powered by AerisWeather